Station Historical Data
Daily Summary for February 1, 2017 Units:  English    Metric   Both
« Previous Day
Next Day »
Daily Weekly Monthly Yearly Custom
  High: Low: Average:
Temperature: 54.9 °F 42.3 °F 48.3 °F
Dew Point: 39.9 °F 29.8 °F 34.1 °F
Humidity: 70 % 43 % 58 %
Wind Speed: 20.0 mph 0.0 mph 3.4 mph
Wind Gust: 25.0 mph - -
Wind:- - SE
Pressure: 30.10 in 29.97 in -
Precipitation: 0.00 in    
Historical Graphs
 
 
Tabular Data for February 1, 2017
Time Temperature Dew Point Pressure Wind Wind Speed Wind Gust Humidity Rainfall Rate (Hourly) solar
00:04 45.4 °F 32.8 °F 30.10 in Calm   15.0 mph 61 % 0.00 in 0.00 W/m2
00:09 45.3 °F 32.7 °F 30.10 in ESE 11.0 mph 15.0 mph 61 % 0.00 in 0.00 W/m2
00:14 45.3 °F 32.7 °F 30.10 in ESE 7.0 mph 11.0 mph 61 % 0.00 in 0.00 W/m2
00:19 45.3 °F 32.2 °F 30.09 in ESE 6.0 mph 11.0 mph 60 % 0.00 in 0.00 W/m2
00:24 45.3 °F 32.2 °F 30.09 in East 11.0 mph 14.0 mph 60 % 0.00 in 0.00 W/m2
00:29 45.3 °F 31.4 °F 30.09 in Calm   12.0 mph 58 % 0.00 in 0.00 W/m2
00:34 45.3 °F 31.8 °F 30.09 in ESE 11.0 mph 16.0 mph 59 % 0.00 in 0.00 W/m2
00:39 45.3 °F 31.4 °F 30.09 in ESE 7.0 mph 11.0 mph 58 % 0.00 in 0.00 W/m2
00:44 45.3 °F 31.0 °F 30.09 in SE 12.0 mph 13.0 mph 57 % 0.00 in 0.00 W/m2
00:49 45.2 °F 31.3 °F 30.09 in ESE 7.0 mph 9.0 mph 58 % 0.00 in 0.00 W/m2
00:54 45.1 °F 31.6 °F 30.09 in Calm   13.0 mph 59 % 0.00 in 0.00 W/m2
00:59 45.0 °F 31.1 °F 30.09 in ESE 8.0 mph 11.0 mph 58 % 0.00 in 0.00 W/m2
01:04 44.9 °F 31.9 °F 30.09 in Calm   9.0 mph 60 % 0.00 in 0.00 W/m2
01:09 44.8 °F 31.4 °F 30.09 in ESE 4.0 mph 12.0 mph 59 % 0.00 in 0.00 W/m2
01:14 44.7 °F 31.3 °F 30.09 in ESE 6.0 mph 9.0 mph 59 % 0.00 in 0.00 W/m2
01:19 44.6 °F 31.2 °F 30.09 in ESE 7.0 mph 11.0 mph 59 % 0.00 in 0.00 W/m2
01:24 44.5 °F 31.1 °F 30.09 in Calm   11.0 mph 59 % 0.00 in 0.00 W/m2
01:29 44.5 °F 31.5 °F 30.09 in ESE 1.0 mph 13.0 mph 60 % 0.00 in 0.00 W/m2
01:34 44.4 °F 31.4 °F 30.08 in ESE 5.0 mph 13.0 mph 60 % 0.00 in 0.00 W/m2
01:39 44.3 °F 31.3 °F 30.09 in ESE 5.0 mph 11.0 mph 60 % 0.00 in 0.00 W/m2
01:45 44.3 °F 31.7 °F 30.08 in Calm   8.0 mph 61 % 0.00 in 0.00 W/m2
01:50 44.2 °F 31.2 °F 30.08 in ESE 1.0 mph 14.0 mph 60 % 0.00 in 0.00 W/m2
01:55 44.2 °F 30.8 °F 30.08 in Calm   13.0 mph 59 % 0.00 in 0.00 W/m2
02:00 44.1 °F 31.1 °F 30.08 in ESE 5.0 mph 14.0 mph 60 % 0.00 in 0.00 W/m2
02:05 44.1 °F 31.5 °F 30.08 in ESE 4.0 mph 14.0 mph 61 % 0.00 in 0.00 W/m2
02:10 44.1 °F 31.5 °F 30.08 in ESE 8.0 mph 13.0 mph 61 % 0.00 in 0.00 W/m2
02:15 44.1 °F 31.1 °F 30.08 in SE 11.0 mph 13.0 mph 60 % 0.00 in 0.00 W/m2
02:20 44.1 °F 31.5 °F 30.07 in East 12.0 mph 13.0 mph 61 % 0.00 in 0.00 W/m2
02:25 44.1 °F 31.1 °F 30.08 in ESE 5.0 mph 15.0 mph 60 % 0.00 in 0.00 W/m2
02:30 44.1 °F 31.5 °F 30.08 in ESE 7.0 mph 12.0 mph 61 % 0.00 in 0.00 W/m2
02:35 44.1 °F 30.7 °F 30.07 in ESE 1.0 mph 13.0 mph 59 % 0.00 in 0.00 W/m2
02:40 44.1 °F 30.7 °F 30.07 in ESE 5.0 mph 16.0 mph 59 % 0.00 in 0.00 W/m2
02:45 44.1 °F 31.5 °F 30.07 in ESE 6.0 mph 14.0 mph 61 % 0.00 in 0.00 W/m2
02:50 44.1 °F 31.1 °F 30.07 in ESE 12.0 mph 14.0 mph 60 % 0.00 in 0.00 W/m2
02:55 44.1 °F 30.3 °F 30.06 in SSE 8.0 mph 14.0 mph 58 % 0.00 in 0.00 W/m2
03:00 44.2 °F 31.2 °F 30.07 in ESE 4.0 mph 13.0 mph 60 % 0.00 in 0.00 W/m2
03:05 44.2 °F 31.2 °F 30.07 in ESE 5.0 mph 14.0 mph 60 % 0.00 in 0.00 W/m2
03:10 44.3 °F 30.9 °F 30.07 in East 13.0 mph 19.0 mph 59 % 0.00 in 0.00 W/m2
03:15 44.3 °F 31.3 °F 30.07 in SE 1.0 mph 16.0 mph 60 % 0.00 in 0.00 W/m2
03:20 44.4 °F 31.4 °F 30.07 in East 4.0 mph 18.0 mph 60 % 0.00 in 0.00 W/m2
03:25 44.4 °F 31.0 °F 30.07 in SE 5.0 mph 14.0 mph 59 % 0.00 in 0.00 W/m2
03:30 44.4 °F 31.0 °F 30.07 in ESE 2.0 mph 12.0 mph 59 % 0.00 in 0.00 W/m2
03:35 44.5 °F 31.5 °F 30.06 in East 4.0 mph 14.0 mph 60 % 0.00 in 0.00 W/m2
03:40 44.5 °F 31.5 °F 30.06 in ESE 7.0 mph 18.0 mph 60 % 0.00 in 0.00 W/m2
03:46 44.5 °F 31.5 °F 30.06 in ESE 6.0 mph 17.0 mph 60 % 0.00 in 0.00 W/m2
03:51 44.5 °F 31.1 °F 30.06 in ESE 6.0 mph 15.0 mph 59 % 0.00 in 0.00 W/m2
03:56 44.5 °F 30.7 °F 30.06 in ESE 2.0 mph 16.0 mph 58 % 0.00 in 0.00 W/m2
04:01 44.6 °F 31.2 °F 30.05 in ESE 11.0 mph 18.0 mph 59 % 0.00 in 0.00 W/m2
04:06 44.6 °F 31.2 °F 30.05 in ESE 8.0 mph 15.0 mph 59 % 0.00 in 0.00 W/m2
04:11 44.7 °F 31.3 °F 30.05 in East 9.0 mph 15.0 mph 59 % 0.00 in 0.00 W/m2
04:16 44.7 °F 30.9 °F 30.05 in ESE 1.0 mph 18.0 mph 58 % 0.00 in 0.00 W/m2
04:21 44.7 °F 31.3 °F 30.05 in ESE 8.0 mph 18.0 mph 59 % 0.00 in 0.00 W/m2
04:26 44.7 °F 30.9 °F 30.05 in ESE 6.0 mph 12.0 mph 58 % 0.00 in 0.00 W/m2
04:31 44.7 °F 30.4 °F 30.05 in East 1.0 mph 15.0 mph 57 % 0.00 in 0.00 W/m2
04:36 44.7 °F 31.3 °F 30.05 in ESE 11.0 mph 14.0 mph 59 % 0.00 in 0.00 W/m2
04:41 44.6 °F 31.2 °F 30.05 in ESE 6.0 mph 13.0 mph 59 % 0.00 in 0.00 W/m2
04:46 44.5 °F 30.7 °F 30.05 in East 8.0 mph 14.0 mph 58 % 0.00 in 0.00 W/m2
04:51 44.5 °F 31.1 °F 30.05 in ESE 2.0 mph 2.0 mph 59 % 0.00 in 0.00 W/m2
04:56 44.4 °F 31.0 °F 30.04 in Calm   12.0 mph 59 % 0.00 in 0.00 W/m2
05:01 44.4 °F 30.1 °F 30.04 in Calm   16.0 mph 57 % 0.00 in 0.00 W/m2
05:06 44.4 °F 31.0 °F 30.04 in Calm     59 % 0.00 in 0.00 W/m2
05:11 44.4 °F 31.0 °F 30.04 in Calm   1.0 mph 59 % 0.00 in 0.00 W/m2
05:16 44.4 °F 31.0 °F 30.04 in ESE 6.0 mph 7.0 mph 59 % 0.00 in 0.00 W/m2
05:21 44.3 °F 30.5 °F 30.04 in ESE 2.0 mph 2.0 mph 58 % 0.00 in 0.00 W/m2
05:26 44.3 °F 31.3 °F 30.05 in Calm   2.0 mph 60 % 0.00 in 0.00 W/m2
05:31 44.2 °F 31.2 °F 30.05 in Calm   2.0 mph 60 % 0.00 in 0.00 W/m2
05:36 44.1 °F 29.9 °F 30.05 in Calm     57 % 0.00 in 0.00 W/m2
05:41 43.9 °F 31.3 °F 30.06 in Calm     61 % 0.00 in 0.00 W/m2
05:46 43.8 °F 30.4 °F 30.05 in Calm     59 % 0.00 in 0.00 W/m2
05:51 43.6 °F 31.0 °F 30.06 in Calm     61 % 0.00 in 0.00 W/m2
05:56 43.5 °F 30.5 °F 30.06 in Calm     60 % 0.00 in 0.00 W/m2
06:01 43.3 °F 30.4 °F 30.06 in Calm     60 % 0.00 in 0.00 W/m2
06:06 43.2 °F 30.3 °F 30.05 in Calm     60 % 0.00 in 0.00 W/m2
06:12 43.2 °F 30.3 °F 30.06 in Calm     60 % 0.00 in 0.00 W/m2
06:17 43.1 °F 29.8 °F 30.06 in Calm     59 % 0.00 in 0.00 W/m2
06:22 43.1 °F 30.2 °F 30.05 in Calm     60 % 0.00 in 0.00 W/m2
06:27 43.1 °F 30.6 °F 30.06 in Calm     61 % 0.00 in 0.00 W/m2
06:32 43.0 °F 30.9 °F 30.05 in Calm     62 % 0.00 in 0.00 W/m2
06:37 42.9 °F 30.4 °F 30.05 in Calm   1.0 mph 61 % 0.00 in 0.00 W/m2
06:42 42.9 °F 30.8 °F 30.05 in Calm   1.0 mph 62 % 0.00 in 0.00 W/m2
06:47 42.8 °F 30.7 °F 30.06 in Calm     62 % 0.00 in 0.00 W/m2
06:52 42.8 °F 31.1 °F 30.06 in ESE 2.0 mph 2.0 mph 63 % 0.00 in 0.00 W/m2
06:57 42.7 °F 30.6 °F 30.06 in Calm   1.0 mph 62 % 0.00 in 0.00 W/m2
07:02 42.7 °F 30.6 °F 30.06 in ESE 1.0 mph 1.0 mph 62 % 0.00 in 0.00 W/m2
07:07 42.6 °F 30.5 °F 30.06 in Calm     62 % 0.00 in 0.00 W/m2
07:12 42.6 °F 30.9 °F 30.06 in Calm     63 % 0.00 in 5.00 W/m2
07:17 42.5 °F 30.0 °F 30.06 in East 1.0 mph 1.0 mph 61 % 0.00 in 9.00 W/m2
07:22 42.4 °F 30.7 °F 30.06 in Calm   1.0 mph 63 % 0.00 in 14.00 W/m2
07:27 42.4 °F 30.7 °F 30.06 in Calm   2.0 mph 63 % 0.00 in 18.00 W/m2
07:32 42.4 °F 31.1 °F 30.06 in Calm   1.0 mph 64 % 0.00 in 21.00 W/m2
07:37 42.3 °F 31.0 °F 30.06 in Calm   2.0 mph 64 % 0.00 in 25.00 W/m2
07:42 42.3 °F 31.4 °F 30.06 in Calm     65 % 0.00 in 32.00 W/m2
07:47 42.3 °F 31.0 °F 30.06 in Calm     64 % 0.00 in 32.00 W/m2
07:52 42.3 °F 31.4 °F 30.06 in East 1.0 mph 2.0 mph 65 % 0.00 in 35.00 W/m2
07:57 42.4 °F 31.5 °F 30.06 in Calm     65 % 0.00 in 46.00 W/m2
08:02 42.4 °F 31.5 °F 30.07 in Calm   2.0 mph 65 % 0.00 in 54.00 W/m2
08:07 42.5 °F 31.6 °F 30.07 in Calm     65 % 0.00 in 62.00 W/m2
08:12 42.7 °F 31.8 °F 30.07 in Calm   1.0 mph 65 % 0.00 in 67.00 W/m2
08:17 42.8 °F 31.9 °F 30.07 in Calm     65 % 0.00 in 70.00 W/m2
08:22 43.0 °F 32.4 °F 30.07 in Calm   2.0 mph 66 % 0.00 in 76.00 W/m2
08:27 43.2 °F 32.6 °F 30.07 in Calm   2.0 mph 66 % 0.00 in 104.00 W/m2
08:32 43.3 °F 32.7 °F 30.07 in East 2.0 mph 5.0 mph 66 % 0.00 in 98.00 W/m2
08:37 43.4 °F 33.6 °F 30.07 in East 4.0 mph 4.0 mph 68 % 0.00 in 93.00 W/m2
08:42 43.5 °F 33.3 °F 30.08 in East 2.0 mph 2.0 mph 67 % 0.00 in 116.00 W/m2
08:48 43.6 °F 33.0 °F 30.08 in Calm   2.0 mph 66 % 0.00 in 107.00 W/m2
08:53 43.7 °F 33.1 °F 30.09 in Calm   2.0 mph 66 % 0.00 in 116.00 W/m2
08:58 44.0 °F 33.4 °F 30.09 in ESE 1.0 mph 4.0 mph 66 % 0.00 in 132.00 W/m2
09:03 44.2 °F 33.2 °F 30.08 in ESE 4.0 mph 4.0 mph 65 % 0.00 in 174.00 W/m2
09:08 44.5 °F 34.2 °F 30.09 in Calm   1.0 mph 67 % 0.00 in 183.00 W/m2
09:13 44.6 °F 34.3 °F 30.09 in Calm   4.0 mph 67 % 0.00 in 165.00 W/m2
09:18 45.0 °F 35.1 °F 30.09 in ESE 1.0 mph 1.0 mph 68 % 0.00 in 171.00 W/m2
09:23 45.2 °F 36.0 °F 30.09 in Calm   1.0 mph 70 % 0.00 in 200.00 W/m2
09:28 45.6 °F 35.7 °F 30.09 in Calm   2.0 mph 68 % 0.00 in 251.00 W/m2
09:33 45.8 °F 35.1 °F 30.09 in Calm   2.0 mph 66 % 0.00 in 186.00 W/m2
09:38 46.0 °F 35.3 °F 30.09 in Calm   4.0 mph 66 % 0.00 in 181.00 W/m2
09:43 46.3 °F 34.4 °F 30.08 in SE 1.0 mph 6.0 mph 63 % 0.00 in 195.00 W/m2
09:48 46.6 °F 34.7 °F 30.08 in Calm   7.0 mph 63 % 0.00 in 195.00 W/m2
09:53 47.0 °F 35.5 °F 30.08 in ESE 1.0 mph 6.0 mph 64 % 0.00 in 209.00 W/m2
09:58 47.4 °F 34.6 °F 30.07 in SE 8.0 mph 15.0 mph 61 % 0.00 in 255.00 W/m2
10:03 47.7 °F 34.5 °F 30.07 in Calm   14.0 mph 60 % 0.00 in 272.00 W/m2
10:08 48.1 °F 34.5 °F 30.08 in Calm   13.0 mph 59 % 0.00 in 311.00 W/m2
10:13 48.4 °F 34.3 °F 30.08 in SE 13.0 mph 16.0 mph 58 % 0.00 in 383.00 W/m2
10:18 48.7 °F 32.3 °F 30.08 in SSE 1.0 mph 14.0 mph 53 % 0.00 in 237.00 W/m2
10:23 49.2 °F 33.3 °F 30.08 in ESE 6.0 mph 12.0 mph 54 % 0.00 in 334.00 W/m2
10:28 49.6 °F 33.7 °F 30.08 in Calm   11.0 mph 54 % 0.00 in 274.00 W/m2
10:33 50.0 °F 33.6 °F 30.08 in SSE 1.0 mph 11.0 mph 53 % 0.00 in 272.00 W/m2
10:38 50.3 °F 34.3 °F 30.08 in SE 11.0 mph 11.0 mph 54 % 0.00 in 267.00 W/m2
10:43 50.5 °F 34.5 °F 30.08 in SSE 1.0 mph 10.0 mph 54 % 0.00 in 237.00 W/m2
10:48 50.8 °F 33.3 °F 30.08 in SSE 4.0 mph 10.0 mph 51 % 0.00 in 306.00 W/m2
10:53 51.1 °F 33.6 °F 30.08 in SSE 1.0 mph 6.0 mph 51 % 0.00 in 267.00 W/m2
10:58 51.5 °F 33.5 °F 30.08 in SSE 1.0 mph 9.0 mph 50 % 0.00 in 236.00 W/m2
11:03 51.8 °F 34.3 °F 30.08 in Calm   11.0 mph 51 % 0.00 in 216.00 W/m2
11:08 52.1 °F 32.5 °F 30.08 in Calm   9.0 mph 47 % 0.00 in 160.00 W/m2
11:13 52.3 °F 34.7 °F 30.08 in Calm   9.0 mph 51 % 0.00 in 148.00 W/m2
11:18 52.4 °F 34.8 °F 30.08 in South 1.0 mph 10.0 mph 51 % 0.00 in 197.00 W/m2
11:23 52.5 °F 32.3 °F 30.08 in Calm   10.0 mph 46 % 0.00 in 302.00 W/m2
11:28 52.6 °F 33.0 °F 30.08 in South 4.0 mph 13.0 mph 47 % 0.00 in 313.00 W/m2
11:34 52.8 °F 33.2 °F 30.08 in South 4.0 mph 12.0 mph 47 % 0.00 in 244.00 W/m2
11:39 53.0 °F 32.8 °F 30.08 in SSE 6.0 mph 9.0 mph 46 % 0.00 in 216.00 W/m2
11:44 53.2 °F 33.5 °F 30.08 in South 1.0 mph 13.0 mph 47 % 0.00 in 221.00 W/m2
11:49 53.4 °F 32.6 °F 30.08 in South 8.0 mph 10.0 mph 45 % 0.00 in 220.00 W/m2
11:54 53.6 °F 32.8 °F 30.07 in South 10.0 mph 11.0 mph 45 % 0.00 in 292.00 W/m2
11:59 53.7 °F 32.3 °F 30.06 in Calm   12.0 mph 44 % 0.00 in 262.00 W/m2
12:04 53.9 °F 33.1 °F 30.06 in SSE 7.0 mph 8.0 mph 45 % 0.00 in 227.00 W/m2
12:09 54.1 °F 33.8 °F 30.06 in South 7.0 mph 10.0 mph 46 % 0.00 in 223.00 W/m2
12:14 54.1 °F 33.2 °F 30.05 in SSE 11.0 mph 11.0 mph 45 % 0.00 in 220.00 W/m2
12:19 54.2 °F 32.8 °F 30.05 in SSE 6.0 mph 10.0 mph 44 % 0.00 in 288.00 W/m2
12:24 54.2 °F 35.0 °F 30.04 in SE 10.0 mph 13.0 mph 48 % 0.00 in 454.00 W/m2
12:29 54.3 °F 35.0 °F 30.03 in Calm   13.0 mph 48 % 0.00 in 290.00 W/m2
12:34 54.5 °F 33.6 °F 30.03 in SSE 10.0 mph 14.0 mph 45 % 0.00 in 271.00 W/m2
12:39 54.6 °F 34.8 °F 30.03 in Calm   9.0 mph 47 % 0.00 in 200.00 W/m2
12:44 54.7 °F 34.9 °F 30.03 in SE 8.0 mph 9.0 mph 47 % 0.00 in 185.00 W/m2
12:49 54.8 °F 35.0 °F 30.03 in SSE 11.0 mph 13.0 mph 47 % 0.00 in 239.00 W/m2
12:54 54.8 °F 35.0 °F 30.03 in Calm   9.0 mph 47 % 0.00 in 251.00 W/m2
12:59 54.9 °F 35.1 °F 30.03 in Calm   1.0 mph 47 % 0.00 in 171.00 W/m2
13:04 54.9 °F 36.1 °F 30.03 in Calm   2.0 mph 49 % 0.00 in 134.00 W/m2
13:09 54.9 °F 36.1 °F 30.03 in Calm   7.0 mph 49 % 0.00 in 142.00 W/m2
13:14 54.9 °F 36.6 °F 30.03 in SSE 1.0 mph 10.0 mph 50 % 0.00 in 130.00 W/m2
13:19 54.9 °F 37.1 °F 30.03 in Calm   7.0 mph 51 % 0.00 in 121.00 W/m2
13:24 54.8 °F 38.0 °F 30.03 in Calm   1.0 mph 53 % 0.00 in 113.00 W/m2
13:29 54.7 °F 38.9 °F 30.03 in Calm     55 % 0.00 in 98.00 W/m2
13:35 54.6 °F 39.2 °F 30.03 in Calm     56 % 0.00 in 95.00 W/m2
13:59 53.6 °F 37.8 °F 30.03 in Calm     55 % 0.00 in 149.00 W/m2
14:04 53.4 °F 36.7 °F 30.03 in Calm     53 % 0.00 in 276.00 W/m2
14:09 53.4 °F 39.9 °F 30.03 in Calm     60 % 0.00 in 220.00 W/m2
14:14 53.3 °F 37.1 °F 30.03 in Calm     54 % 0.00 in 227.00 W/m2
14:19 53.4 °F 36.2 °F 30.03 in WSW 2.0 mph 2.0 mph 52 % 0.00 in 204.00 W/m2
14:24 53.4 °F 36.2 °F 30.03 in Calm   2.0 mph 52 % 0.00 in 174.00 W/m2
14:29 53.4 °F 36.7 °F 30.03 in Calm     53 % 0.00 in 127.00 W/m2
14:34 53.4 °F 37.2 °F 30.03 in Calm     54 % 0.00 in 120.00 W/m2
14:39 53.4 °F 39.0 °F 30.02 in Calm     58 % 0.00 in 107.00 W/m2
14:44 53.3 °F 38.5 °F 30.02 in Calm     57 % 0.00 in 114.00 W/m2
14:49 53.2 °F 39.7 °F 30.02 in Calm     60 % 0.00 in 81.00 W/m2
14:54 53.2 °F 39.3 °F 30.02 in Calm     59 % 0.00 in 91.00 W/m2
14:59 53.0 °F 39.1 °F 30.02 in Calm     59 % 0.00 in 97.00 W/m2
15:04 52.8 °F 38.9 °F 30.03 in Calm     59 % 0.00 in 69.00 W/m2
15:09 52.6 °F 38.7 °F 30.03 in South 4.0 mph 5.0 mph 59 % 0.00 in 88.00 W/m2
15:14 52.5 °F 39.5 °F 30.02 in Calm   2.0 mph 61 % 0.00 in 111.00 W/m2
15:19 52.4 °F 38.1 °F 30.02 in South 2.0 mph 10.0 mph 58 % 0.00 in 74.00 W/m2
15:24 52.3 °F 38.0 °F 30.02 in Calm   7.0 mph 58 % 0.00 in 111.00 W/m2
15:29 52.3 °F 38.0 °F 30.02 in Calm   10.0 mph 58 % 0.00 in 81.00 W/m2
15:34 52.2 °F 38.8 °F 30.02 in SSE 1.0 mph 1.0 mph 60 % 0.00 in 100.00 W/m2
15:40 52.2 °F 38.8 °F 30.02 in SSE 5.0 mph 16.0 mph 60 % 0.00 in 120.00 W/m2
15:45 52.2 °F 38.3 °F 30.01 in ESE 13.0 mph 14.0 mph 59 % 0.00 in 111.00 W/m2
15:50 52.2 °F 37.9 °F 30.00 in SE 10.0 mph 12.0 mph 58 % 0.00 in 86.00 W/m2
15:55 52.3 °F 37.5 °F 30.00 in SE 9.0 mph 13.0 mph 57 % 0.00 in 74.00 W/m2
16:00 52.3 °F 37.5 °F 30.00 in SE 1.0 mph 12.0 mph 57 % 0.00 in 39.00 W/m2
16:05 52.3 °F 38.4 °F 30.00 in Calm   14.0 mph 59 % 0.00 in 37.00 W/m2
16:10 52.2 °F 38.3 °F 30.00 in Calm   12.0 mph 59 % 0.00 in 33.00 W/m2
16:15 52.2 °F 37.9 °F 30.00 in SE 1.0 mph 13.0 mph 58 % 0.00 in 40.00 W/m2
16:20 52.1 °F 37.8 °F 30.00 in Calm   8.0 mph 58 % 0.00 in 51.00 W/m2
16:25 52.0 °F 38.6 °F 29.99 in Calm   13.0 mph 60 % 0.00 in 33.00 W/m2
16:30 51.8 °F 38.4 °F 29.98 in SE 7.0 mph 14.0 mph 60 % 0.00 in 26.00 W/m2
16:35 51.7 °F 37.8 °F 29.97 in ESE 1.0 mph 15.0 mph 59 % 0.00 in 26.00 W/m2
16:40 51.6 °F 38.6 °F 29.98 in Calm   16.0 mph 61 % 0.00 in 26.00 W/m2
16:45 51.5 °F 38.1 °F 29.98 in Calm   14.0 mph 60 % 0.00 in 26.00 W/m2
16:50 51.5 °F 38.1 °F 29.99 in Calm   11.0 mph 60 % 0.00 in 25.00 W/m2
16:55 51.4 °F 38.4 °F 30.00 in Calm   1.0 mph 61 % 0.00 in 18.00 W/m2
17:00 51.4 °F 38.0 °F 30.00 in Calm   1.0 mph 60 % 0.00 in 12.00 W/m2
17:05 51.3 °F 38.3 °F 30.00 in ESE 1.0 mph 8.0 mph 61 % 0.00 in 11.00 W/m2
17:10 51.2 °F 39.0 °F 30.01 in Calm   1.0 mph 63 % 0.00 in 7.00 W/m2
17:15 51.1 °F 38.5 °F 30.01 in Calm   1.0 mph 62 % 0.00 in 0.00 W/m2
17:20 51.0 °F 38.9 °F 30.01 in Calm   1.0 mph 63 % 0.00 in 0.00 W/m2
17:25 50.8 °F 39.1 °F 30.01 in Calm   1.0 mph 64 % 0.00 in 0.00 W/m2
17:30 50.6 °F 38.9 °F 30.02 in Calm   9.0 mph 64 % 0.00 in 0.00 W/m2
17:36 50.4 °F 39.1 °F 30.02 in Calm   10.0 mph 65 % 0.00 in 0.00 W/m2
17:41 50.2 °F 38.9 °F 30.02 in Calm   10.0 mph 65 % 0.00 in 0.00 W/m2
17:46 50.0 °F 39.1 °F 30.03 in Calm   11.0 mph 66 % 0.00 in 0.00 W/m2
17:51 49.8 °F 38.9 °F 30.03 in Calm   9.0 mph 66 % 0.00 in 0.00 W/m2
17:56 49.6 °F 38.3 °F 30.02 in Calm   2.0 mph 65 % 0.00 in 0.00 W/m2
18:01 49.5 °F 38.6 °F 30.02 in Calm   2.0 mph 66 % 0.00 in 0.00 W/m2
18:06 49.4 °F 38.5 °F 30.02 in Calm   1.0 mph 66 % 0.00 in 0.00 W/m2
18:11 49.3 °F 38.8 °F 30.01 in Calm   9.0 mph 67 % 0.00 in 0.00 W/m2
18:16 49.2 °F 38.7 °F 30.02 in Calm   1.0 mph 67 % 0.00 in 0.00 W/m2
18:21 49.2 °F 39.1 °F 30.02 in SSE 1.0 mph 9.0 mph 68 % 0.00 in 0.00 W/m2
18:26 49.1 °F 38.6 °F 30.01 in SSE 2.0 mph 10.0 mph 67 % 0.00 in 0.00 W/m2
18:31 49.1 °F 38.2 °F 30.01 in SSE 9.0 mph 10.0 mph 66 % 0.00 in 0.00 W/m2
18:36 49.1 °F 37.9 °F 30.00 in SSE 6.0 mph 11.0 mph 65 % 0.00 in 0.00 W/m2
18:41 49.2 °F 37.2 °F 29.99 in SSE 9.0 mph 13.0 mph 63 % 0.00 in 0.00 W/m2
18:46 49.3 °F 36.4 °F 29.99 in SE 6.0 mph 17.0 mph 61 % 0.00 in 0.00 W/m2
18:51 49.5 °F 36.6 °F 29.99 in SSE 10.0 mph 14.0 mph 61 % 0.00 in 0.00 W/m2
18:56 49.6 °F 35.9 °F 30.00 in SSE 10.0 mph 11.0 mph 59 % 0.00 in 0.00 W/m2
19:01 49.9 °F 36.2 °F 30.00 in SSE 8.0 mph 8.0 mph 59 % 0.00 in 0.00 W/m2
19:06 50.0 °F 35.8 °F 30.00 in SSE 8.0 mph 14.0 mph 58 % 0.00 in 0.00 W/m2
19:11 50.1 °F 35.5 °F 30.01 in Calm   1.0 mph 57 % 0.00 in 0.00 W/m2
19:16 50.3 °F 35.7 °F 30.01 in SSE 9.0 mph 10.0 mph 57 % 0.00 in 0.00 W/m2
19:21 50.4 °F 36.6 °F 30.01 in SE 5.0 mph 8.0 mph 59 % 0.00 in 0.00 W/m2
19:26 50.4 °F 35.3 °F 30.01 in South 7.0 mph 9.0 mph 56 % 0.00 in 0.00 W/m2
19:31 50.4 °F 34.4 °F 30.01 in South 12.0 mph 14.0 mph 54 % 0.00 in 0.00 W/m2
19:36 50.6 °F 34.1 °F 30.01 in SSE 11.0 mph 15.0 mph 53 % 0.00 in 0.00 W/m2
19:41 50.7 °F 33.7 °F 30.02 in SE 12.0 mph 13.0 mph 52 % 0.00 in 0.00 W/m2
19:46 50.8 °F 32.8 °F 30.02 in SE 8.0 mph 14.0 mph 50 % 0.00 in 0.00 W/m2
19:51 51.1 °F 33.6 °F 30.01 in SSE 6.0 mph 11.0 mph 51 % 0.00 in 0.00 W/m2
19:56 51.2 °F 33.7 °F 30.01 in SE 6.0 mph 9.0 mph 51 % 0.00 in 0.00 W/m2
20:01 51.3 °F 32.8 °F 30.02 in SE 5.0 mph 12.0 mph 49 % 0.00 in 0.00 W/m2
20:07 51.3 °F 33.3 °F 30.02 in SSE 13.0 mph 13.0 mph 50 % 0.00 in 0.00 W/m2
20:12 51.4 °F 32.9 °F 30.01 in SSE 8.0 mph 12.0 mph 49 % 0.00 in 0.00 W/m2
20:17 51.4 °F 32.4 °F 30.02 in South 7.0 mph 9.0 mph 48 % 0.00 in 0.00 W/m2
20:22 51.5 °F 32.0 °F 30.01 in SE 4.0 mph 12.0 mph 47 % 0.00 in 0.00 W/m2
20:27 51.5 °F 32.0 °F 30.00 in SSE 12.0 mph 18.0 mph 47 % 0.00 in 0.00 W/m2
20:32 51.6 °F 31.0 °F 30.01 in SSE 8.0 mph 12.0 mph 45 % 0.00 in 0.00 W/m2
20:37 51.7 °F 30.5 °F 30.02 in SE 12.0 mph 19.0 mph 44 % 0.00 in 0.00 W/m2
20:42 51.9 °F 31.2 °F 30.01 in SSE 14.0 mph 15.0 mph 45 % 0.00 in 0.00 W/m2
20:47 52.1 °F 30.9 °F 29.99 in SSE 9.0 mph 19.0 mph 44 % 0.00 in 0.00 W/m2
20:52 52.1 °F 31.4 °F 30.00 in South 11.0 mph 19.0 mph 45 % 0.00 in 0.00 W/m2
20:57 52.2 °F 30.4 °F 30.01 in SE 20.0 mph 25.0 mph 43 % 0.00 in 0.00 W/m2
21:02 52.4 °F 32.2 °F 30.02 in SSE 12.0 mph 23.0 mph 46 % 0.00 in 0.00 W/m2
21:07 52.6 °F 35.5 °F 30.01 in SE 5.0 mph 14.0 mph 52 % 0.00 in 0.00 W/m2
21:12 52.4 °F 36.3 °F 30.01 in SSE 2.0 mph 2.0 mph 54 % 0.00 in 0.00 W/m2
21:17 52.2 °F 37.0 °F 30.01 in Calm   4.0 mph 56 % 0.00 in 0.00 W/m2
21:22 51.9 °F 38.0 °F 30.01 in Calm   1.0 mph 59 % 0.00 in 0.00 W/m2
21:27 51.7 °F 37.4 °F 30.02 in Calm   1.0 mph 58 % 0.00 in 0.00 W/m2
21:32 51.5 °F 37.7 °F 30.01 in SSE 5.0 mph 8.0 mph 59 % 0.00 in 0.00 W/m2
21:37 51.2 °F 37.8 °F 30.01 in Calm     60 % 0.00 in 0.00 W/m2
21:42 51.0 °F 38.5 °F 30.02 in Calm     62 % 0.00 in 0.00 W/m2
21:47 50.8 °F 37.4 °F 30.02 in Calm     60 % 0.00 in 0.00 W/m2
21:52 50.6 °F 37.2 °F 30.02 in Calm     60 % 0.00 in 0.00 W/m2
21:57 50.5 °F 37.2 °F 30.02 in Calm     60 % 0.00 in 0.00 W/m2
22:02 50.3 °F 37.4 °F 30.02 in Calm     61 % 0.00 in 0.00 W/m2
22:07 50.2 °F 37.7 °F 30.02 in Calm     62 % 0.00 in 0.00 W/m2
22:12 49.9 °F 37.4 °F 30.01 in Calm     62 % 0.00 in 0.00 W/m2
22:17 49.7 °F 37.2 °F 30.01 in Calm     62 % 0.00 in 0.00 W/m2
22:22 49.5 °F 37.0 °F 30.02 in Calm     62 % 0.00 in 0.00 W/m2
22:27 49.4 °F 36.9 °F 30.02 in Calm     62 % 0.00 in 0.00 W/m2
22:32 49.3 °F 36.8 °F 30.02 in Calm     62 % 0.00 in 0.00 W/m2
22:37 49.2 °F 37.6 °F 30.02 in Calm     64 % 0.00 in 0.00 W/m2
22:43 49.0 °F 37.8 °F 30.01 in Calm     65 % 0.00 in 0.00 W/m2
22:48 48.7 °F 37.1 °F 30.00 in Calm     64 % 0.00 in 0.00 W/m2
22:53 48.5 °F 37.3 °F 30.00 in Calm   2.0 mph 65 % 0.00 in 0.00 W/m2
22:58 48.3 °F 37.1 °F 30.00 in SSE 9.0 mph 9.0 mph 65 % 0.00 in 0.00 W/m2
23:03 48.2 °F 37.0 °F 30.00 in Calm   2.0 mph 65 % 0.00 in 0.00 W/m2
23:08 48.2 °F 36.2 °F 30.00 in SSE 6.0 mph 10.0 mph 63 % 0.00 in 0.00 W/m2
23:13 48.3 °F 35.9 °F 30.01 in SSE 8.0 mph 11.0 mph 62 % 0.00 in 0.00 W/m2
23:18 48.4 °F 34.8 °F 30.01 in SSE 13.0 mph 13.0 mph 59 % 0.00 in 0.00 W/m2
23:23 48.6 °F 34.1 °F 30.01 in SSE 9.0 mph 14.0 mph 57 % 0.00 in 0.00 W/m2
23:28 48.8 °F 32.9 °F 30.01 in SSE 10.0 mph 13.0 mph 54 % 0.00 in 0.00 W/m2
23:33 49.1 °F 32.7 °F 30.02 in SSE 12.0 mph 17.0 mph 53 % 0.00 in 0.00 W/m2
23:38 49.5 °F 33.6 °F 30.01 in SSE 9.0 mph 16.0 mph 54 % 0.00 in 0.00 W/m2
23:43 49.7 °F 33.3 °F 30.00 in SSE 12.0 mph 17.0 mph 53 % 0.00 in 0.00 W/m2
23:48 49.9 °F 32.5 °F 30.01 in SSW 4.0 mph 19.0 mph 51 % 0.00 in 0.00 W/m2
23:53 50.1 °F 31.7 °F 30.01 in SSE 13.0 mph 13.0 mph 49 % 0.00 in 0.00 W/m2
23:58 50.3 °F 32.4 °F 30.00 in SE 5.0 mph 12.0 mph 50 % 0.00 in 0.00 W/m2
Juneau County Weather
Compliments of Weather Underground - 4.5 mb
 WU-history PHP script courtesy of   Juneau County Weather.
powered by Cumulus v1.9.3 (1059)
Ambient Weather VWS v14.00
Top Contact Website Map Copyright © 2007 - 2018 Foresthillweather.com Never base important decisions on this or any weather information obtained from the Internet